Location: Mohawk View
(42.7837°N, 73.7885°W)
Time: 02:08:25
(UTC+00:00)

Cosmos 1842 Rocket - Pass Details

Date: 17 June 2021
Orbit: 606 x 633 km, 82.5° (Epoch: 02 August)

Event Time Altitude Azimuth Distance (km) Brightness Sun altitude
Rises 07:02:44 0° 345° (NNW) 2,874 7.7 -17.7°
Reaches altitude 10° 07:05:01 10° 339° (NNW) 1,967 6.6 -17.5°
Maximum altitude 07:09:09 44° 267° (W) 850 4.0 -17.1°
Enters shadow 07:10:29 33° 223° (SW) 1,029 4.1 -16.9°
